Location: PSU-Greenbush Astrophysical Observatory
(37.5140°N, 94.9880°W)
Time: 20:25:04
(UTC-06:00)

Transit 2A - Pass Details

Date: 25 January 2020
Orbit: 599 x 959 km, 66.7° (Epoch: 25 February)

Event Time Altitude Azimuth Distance (km) Brightness Sun altitude
Rises 03:50:40 0° 349° (N) 2,985 - -43.2°
Reaches altitude 10° 03:53:49 10° 12° (NNE) 2,131 - -42.6°
Maximum altitude 03:56:42 16° 49° (NE) 1,840 - -42.0°
Exits shadow 03:58:22 14° 72° (ENE) 1,990 8.7 -41.7°
Drops below altitude 10° 03:59:43 10° 86° (E) 2,258 9.1 -41.4°
Sets 04:03:12 0° 108° (ESE) 3,264 10.0 -40.7°
